Find Starlink 35102

NORAD ID: 65839 Int'l Des: 2025-221 Owner: SPXS Country: US Constellation: starlink operational
LEOCIRCULAR

Live Position

Loading 3D Globe...

About Starlink 35102

Description loading...

Upcoming Passes

Passes for default location (London). Set your location on the main map for personalized predictions.

Altitude History

Loading altitude history...

Two-Line Element Set

1 65839U 25221S 26110.43689881 .00010955 00000-0 38152-3 0 9992
2 65839 53.1595 254.5301 0001187 83.9914 276.1222 15.30193335 31124
Epoch: Apr 20, 2026 • Age: 12 hours

Current Status

Altitude 483.1 km
Velocity 7.62 km/s
Sub-Earth Point -25.46°S, 91.74°W
Launch Date Sep 29, 2025
Age 0.5 years
Type internet

Technical Details

Classification Payload
Mass 575.00 kg
Dry Mass 530.00 kg
Total Mass 575.00 kg
Length 0.30 m
Diameter 4.10 m
Span 29.00 m
Shape Box + pan
Manufacturer SPXS
Bus Type Starlink V2MO
Phase Status In Orbit
Owner/State SPXS/US

Most Searched